DELTA 1 DEB

Satellite information

Favourite Embed

Satellite Type and Status

DEBRISIN ORBIT

Key statistics

Satellite DELTA 1 DEB at a glance.

Uptime

18401

Days in orbit

Revolutions

≈ 13.8

Per day

Orbit

SSO

Sun Synchronous Orbit

Inclination

99.6

Latest

Satellite identification and parameters

Extended collection of information and parameters for DELTA 1 DEB.

Object identification

Identified? True

Debris? True

Object name: DELTA 1 DEB

International designator: 1975-052LF

Object number (NORAD): 27578

Object ID (CCSDS): 27578

Country: UNITED STATES OF AMERICA (US)

Current information (Y/N): Y

RCS size: SMALL

Orbital parameters

Period: 104.638 minutes

Inclination: 99.6049 deg

SMA: 7355.637 km

Apoapsis: 1008.089 km

Periapsis: 946.915 km

RAAN: 204.1661 deg

Eccentricy: 0.00415827

Argument of periapsis: 63.1551 deg

Mean anomaly: 312.1929 deg

Mean motion: 13.76170804 rev/day

Mean motion (dot): 0.00001248 rev/day2

B* drag term: 0.0013206785 1/REarth

Two-line elements (TLE)

Creation date: Oct. 27, 2025, 10:32 a.m.

Reference frame: TEME

Reference center: EARTH

Epoch: Oct. 27, 2025, 12:25 a.m. UTC

TLE line 0: 0 DELTA 1 DEB

TLE line 1: 1 27578U 75052LF 25300.01750049 .00001248 00000-0 13207-2 0 9994

TLE line 2: 2 27578 99.6049 204.1661 0041583 63.1551 312.1929 13.76170804226868

Live tracking on map

Real-time ground track for satellite DELTA 1 DEB.

In-orbit conjunctions

A list of the most updated potential collisions computed for object DELTA 1 DEB.

Target Orbit TCA Probability of collision Miss distance Type
ALOUETTE 1 (S-27) LEO 2024-12-20 08:10:32 0.0002106508 117.0 (m) PAYLOAD
COSMOS 1607 LEO 2024-09-17 05:20:48 0.0002574751 118.0 (m) PAYLOAD

Associated space launch

Experimental meteorological satellite

DELTA 1 DEB was lifted into orbit during the mission ‘Delta 2910 | Nimbus 6’, on board a Delta 2910 space rocket.

The launch took place on June 12, 1975, 8:12 a.m. from Space Launch Complex 2W.

For more information about the launch, click the button.

Launch to space Delta 2910 | Nimbus 6
Delta 2910 | Nimbus 6

Agency: N/A

Status: Launch Successful

Launch date: June 12, 1975, 8:12 a.m. UTC

Rocket: Delta 2910

Launch pad: Space Launch Complex 2W

Location: Vandenberg SFB, CA, USA

...

Latest news about this satellite

There are no fresh news available about this satellite. Check back as we update our databases every day.


Newsletter sign-up

Weekly statistics, charts and insights to help you stay on top of the space industry.